This is the latest recevied weather packets stored in our database for station/object YB2YEN-13. If no packets are shown the sender has not sent any weather packets the latest 10 day(s).
| Time | Temp. | Humidity | Pressure | Rain* | Wind** | Luminosity | Snow |
|---|---|---|---|---|---|---|---|
| 1777776673 | 31.11° C | 90% | 979 hPa | - | - | 0 W/m² | - |
| 1777776351 | 31.11° C | 86% | 979 hPa | - | - | 0 W/m² | - |
| 1777776029 | 31.11° C | 90% | 979 hPa | - | - | 0 W/m² | - |
| 1777775709 | 31.67° C | 91% | 979 hPa | - | - | 0 W/m² | - |
| 1777775385 | 31.11° C | 90% | 979 hPa | - | - | 0 W/m² | - |
| 1777775063 | 30.56° C | 99% | 979 hPa | - | - | 0 W/m² | - |
| 1777774741 | 30.56° C | 94% | 979 hPa | - | - | 0 W/m² | - |
| 1777774419 | 29.44° C | 97% | 979 hPa | - | - | 0 W/m² | - |
| 1777774097 | 28.33° C | 99% | 979 hPa | - | - | 0 W/m² | - |
| 1777773775 | 28.89° C | 99% | 979 hPa | - | - | 0 W/m² | - |
| 1777773455 | 29.44° C | 98% | 979 hPa | - | - | 0 W/m² | - |
| 1777773131 | 29.44° C | 99% | 979 hPa | - | - | 0 W/m² | - |
| 1777772809 | 28.89° C | 99% | 979 hPa | - | - | 0 W/m² | - |
| 1777772487 | 31.11° C | 99% | 979 hPa | - | - | 0 W/m² | - |
| 1777772165 | 29.44° C | 99% | 979 hPa | - | - | 0 W/m² | - |
| 1777771843 | 28.33° C | 99% | 979 hPa | - | - | 0 W/m² | - |
| 1777771521 | 28.33° C | 99% | 979 hPa | - | - | 0 W/m² | - |
| 1777771199 | 27.78° C | 99% | 979 hPa | - | - | 0 W/m² | - |
| 1777770876 | 27.78° C | 99% | 979 hPa | - | - | 0 W/m² | - |
| 1777770554 | 27.22° C | 99% | 979 hPa | - | - | 0 W/m² | - |
| 1777770232 | 27.22° C | 99% | 979 hPa | - | - | 0 W/m² | - |
| 1777769910 | 27.22° C | 99% | 979 hPa | - | - | 0 W/m² | - |
| 1777769588 | 27.22° C | 99% | 979 hPa | - | - | 0 W/m² | - |
| 1777769267 | 27.78° C | 99% | 979 hPa | - | - | 0 W/m² | - |
| 1777768944 | 27.78° C | 99% | 979 hPa | - | - | 0 W/m² | - |
* Rain since midnight (hover to see other rain measurements)
** Current wind speed in m/s (hover to see current wind gust speed)